PRAETORIAN SDA_616

Last updated on Sun Jun 21 2026 00:03:46 GMT+0000 (Coordinated Universal Time)

1 65579U 25203Q 26170.94897446 .00000194 00000+0 16597-3 0 9995 2 65579 81.3060 8.5231 0005429 184.4895 175.6214 13.83268264 39067
UTC large
Height (km)
Speed (km/s)
/
Latitude / Longitude
Inclination (degrees)
Orbital Period (minutes)
Azimuth
Elevation
Range (km)
Doppler Factor

Next 0 passes for location: London (51.5072 / 0.1276)

No passes found over London.
PRAETORIAN SDA_616